Odi Airport

Jump to: basic info | weather | comments

Related pages: nearby airports | nearby navaids | notams | map

Basic information (top)

Codes: FAIO
Location: lon -25.549999, lat 27.933001, elev 3,862 ft / 1,177 m msl
Status: small_airport

Weather (top)

Current conditions for Wonderboom Airport 17nm (31km) ESE (rec'd 2014/08/23 19:00Z):

FAWB 231900Z AUTO 22007KT 13/M14 Q1019

Airport forecast for Wonderboom Airport 17nm (31km) ESE (rec'd 2014/08/02 07:00Z):

TAF FAWB 020600Z 0207/0218 VRB02KT CAVOK 
      BECMG 0207/0209 03010KT TX24/0212ZTN12/0218Z

Latest comments (top)

Runway Details: Runways: 10 & 29 Runway Length = ... [read]

More... (top)

See also NOTAMs and nearby airports and navaids, or visit the Odi Airport page at the main OurAirports website..